{"data":{"norad_id":67553,"epoch":"2026-05-25T03:35:04.912224Z","epoch_age_seconds":62314,"freshness":"FRESH","line1":"1 67553U 26014X   26145.14936241  .00013167  00000+0  40935-3 0  9998","line2":"2 67553  97.2858  32.2362 0001419  96.9246 263.2158 15.33452973 20490","mean_motion":15.33452973,"eccentricity":0.0001419,"inclination_deg":97.2858,"raan_deg":32.2362,"arg_perigee_deg":96.9246,"mean_anomaly_deg":263.2158,"bstar":0.00040935,"rev_number":2049,"period_min":93.905716403081,"perigee_km":464.54833769178,"apogee_km":466.49056739301,"semimajor_km":6843.6564525424,"source":"CELESTRAK","updated_at":"2026-05-25T13:38:21.611443Z"}}